Galena, AK

11:41 PM AKDT on May 26, 2017 (GMT -0800)
Pitka

Weather History for PAGA - December, 2012

Change the Weather History Date:

Monday, December 10, 2012

  Actual Average Record
Temperature  
Mean Temperature 0 °F -  
Max Temperature 3 °F 0 °F 32 °F (1985)
Min Temperature -2 °F -15 °F -49 °F (1975)
Degree Days  
Heating Degree Days 64    
Moisture  
Dew Point -1 °F    
Average Humidity 86    
Maximum Humidity 92    
Minimum Humidity 82    
Precipitation  
Precipitation 0.01 in - - ()
Sea Level Pressure  
Sea Level Pressure 29.73 in    
Wind  
Wind Speed 4 mph (NNW)    
Max Wind Speed 8 mph    
Max Gust Speed -    
Visibility 5 miles    
Events Snow    
Averages and records for this station are not official NWS values.
T = Trace of Precipitation, MM = Missing Value Source: NWS Daily Summary

Daily Weather History Graph

Daily Weather History Graph

Search for Another Location

Airport or City:

Trip Planner

Search our weather history database for the weather conditions in past years. The results will help you decide how hot, cold, wet, or windy it might be!

Date:

Astronomy

Dec. 10, 2012 Rise Set
Actual Time 11:19 AM AKST 3:22 PM AKST
Civil Twilight 9:58 AM AKST 4:43 PM AKST
Nautical Twilight 8:47 AM AKST 5:53 PM AKST
Astronomical Twilight 7:46 AM AKST 6:54 PM AKST
Moon 7:19 AM AKST (12/10) 2:10 PM AKST (12/10)
Length of Visible Light 6h 45m
Length of Day
4h 03m
Waning Crescent, 9% of the Moon is Illuminated
Dec 10
Waning Crescent
Dec 12
New
Dec 19
First Quarter
Dec 28
Full
Jan 4
Last Quarter

Hourly Weather History & Observations

Time (AKST) Temp. Windchill Dew Point Humidity Pressure Visibility Wind Dir Wind Speed Gust Speed Precip Events Conditions
12:58 AM 3.0 °F -8.0 °F -0.0 °F 87% 29.63 in 8.0 mi North 5.8 mph - 0.00 in Snow Light Snow
1:58 AM 3.0 °F -8.0 °F -0.0 °F 87% 29.64 in 9.0 mi North 5.8 mph - 0.00 in Snow Light Snow
2:58 AM 3.0 °F -8.0 °F -0.0 °F 87% 29.64 in 7.0 mi North 5.8 mph - 0.00 in Snow Light Snow
3:58 AM 3.0 °F -6.4 °F -0.0 °F 87% 29.64 in 3.0 mi North 4.6 mph - 0.00 in Snow Light Snow
4:06 AM 3.2 °F -7.8 °F -0.4 °F 85% 29.62 in 3.0 mi North 5.8 mph - 0.00 in Snow Light Snow
4:56 AM 3.2 °F -7.8 °F -0.4 °F 85% 29.62 in 6.0 mi North 5.8 mph - 0.00 in Snow Light Snow
4:58 AM 3.0 °F -8.0 °F -0.9 °F 84% 29.64 in 6.0 mi North 5.8 mph - 0.00 in Snow Light Snow
5:21 AM 3.2 °F -9.1 °F -0.4 °F 85% 29.62 in 6.0 mi North 6.9 mph - 0.00 in Snow Light Snow
5:30 AM 3.2 °F -9.1 °F -0.4 °F 85% 29.62 in 6.0 mi North 6.9 mph - 0.00 in Snow Light Snow
5:58 AM 3.0 °F -6.4 °F -0.9 °F 84% 29.64 in 9.0 mi North 4.6 mph - 0.00 in Snow Light Snow
6:40 AM 1.4 °F -9.9 °F -0.4 °F 92% 29.62 in 6.0 mi North 5.8 mph - 0.00 in Snow Light Snow
6:58 AM 1.9 °F -11.8 °F -0.9 °F 88% 29.65 in 7.0 mi North 8.1 mph - 0.00 in Snow Light Snow
7:58 AM 1.9 °F -9.2 °F -2.0 °F 83% 29.65 in 8.0 mi North 5.8 mph - 0.00 in Snow Light Snow
8:58 AM 1.9 °F -9.2 °F -2.0 °F 83% 29.66 in 7.0 mi North 5.8 mph - 0.00 in Snow Light Snow
9:58 AM 1.9 °F -7.6 °F -0.9 °F 88% 29.67 in 7.0 mi Variable 4.6 mph - 0.00 in Snow Light Snow
10:58 AM 1.9 °F -5.6 °F -0.9 °F 88% 29.68 in 8.0 mi North 3.5 mph - 0.00 in Snow Light Snow
11:58 AM 3.0 °F -4.4 °F -0.9 °F 84% 29.70 in 8.0 mi Variable 3.5 mph - 0.00 in Snow Light Snow
12:38 PM 3.2 °F -6.2 °F -0.4 °F 85% 29.68 in 2.5 mi North 4.6 mph - 0.00 in Snow Light Snow
12:44 PM 3.2 °F - -0.4 °F 85% 29.69 in 1.5 mi Calm Calm - 0.00 in Snow Light Snow
12:58 PM 3.0 °F -6.4 °F -0.0 °F 87% 29.71 in 1.2 mi North 4.6 mph - 0.00 in Snow Light Snow
1:10 PM 3.2 °F -6.2 °F -0.4 °F 85% 29.69 in 1.0 mi North 4.6 mph - 0.00 in Snow Light Snow
1:26 PM 3.2 °F -6.2 °F -0.4 °F 85% 29.69 in 1.2 mi North 4.6 mph - 0.00 in Snow Light Snow
1:58 PM 3.0 °F -8.0 °F -0.9 °F 84% 29.72 in 1.5 mi NNW 5.8 mph - 0.00 in Snow Light Snow
2:05 PM 3.2 °F -7.8 °F -0.4 °F 85% 29.70 in 2.0 mi North 5.8 mph - 0.00 in Snow Light Snow
2:31 PM 3.2 °F -7.8 °F -0.4 °F 85% 29.71 in 4.0 mi North 5.8 mph - 0.00 in Snow Light Snow
2:51 PM 1.4 °F -9.9 °F -0.4 °F 92% 29.72 in 9.0 mi North 5.8 mph - 0.00 in Snow Light Snow
2:58 PM 1.9 °F -7.6 °F -0.9 °F 88% 29.74 in 9.0 mi North 4.6 mph - 0.00 in Snow Light Snow
3:28 PM 3.2 °F -6.2 °F -0.4 °F 85% 29.73 in 2.5 mi NNW 4.6 mph - 0.00 in Snow Light Snow
3:33 PM 3.2 °F -6.2 °F -0.4 °F 85% 29.73 in 2.0 mi NNW 4.6 mph - 0.00 in Snow Light Snow
3:51 PM 3.2 °F -4.2 °F -0.4 °F 85% 29.73 in 4.0 mi NNW 3.5 mph - 0.00 in Snow Light Snow
3:58 PM 3.0 °F - -0.9 °F 84% 29.75 in 4.0 mi Calm Calm - 0.00 in Snow Light Snow
4:14 PM 3.2 °F - -0.4 °F 85% 29.74 in 2.0 mi Calm Calm - 0.00 in Snow Light Snow
4:18 PM 3.2 °F - -0.4 °F 85% 29.74 in 1.5 mi Calm Calm - 0.00 in Snow Light Snow
4:30 PM 3.2 °F - -0.4 °F 85% 29.74 in 2.5 mi Calm Calm - 0.00 in Snow Light Snow
4:33 PM 3.2 °F - -0.4 °F 85% 29.75 in 3.0 mi Calm Calm - 0.00 in Snow Light Snow
4:39 PM 3.2 °F -4.2 °F -0.4 °F 85% 29.74 in 4.0 mi North 3.5 mph - 0.00 in Snow Light Snow
4:47 PM 3.2 °F - -0.4 °F 85% 29.74 in 4.0 mi Calm Calm - 0.00 in Snow Light Snow
4:58 PM 3.0 °F - -0.9 °F 84% 29.77 in 3.0 mi Calm Calm - 0.00 in Snow Light Snow
5:03 PM 3.2 °F - -0.4 °F 85% 29.75 in 3.0 mi Calm Calm - 0.00 in Snow Light Snow
5:30 PM 3.2 °F - -0.4 °F 85% 29.76 in 4.0 mi Calm Calm - 0.01 in Snow Light Snow
5:58 PM 3.0 °F - -0.9 °F 84% 29.79 in 8.0 mi Calm Calm - 0.01 in Snow Light Snow
6:15 PM 3.2 °F - -0.4 °F 85% 29.78 in 2.5 mi Calm Calm - 0.00 in Snow Light Snow
6:20 PM 3.2 °F - -0.4 °F 85% 29.78 in 2.0 mi Calm Calm - 0.00 in Snow Light Snow
6:52 PM 3.2 °F - -0.4 °F 85% 29.80 in 1.5 mi Calm Calm - 0.00 in Snow Light Snow
6:58 PM 3.0 °F - -0.9 °F 84% 29.82 in 1.5 mi Calm Calm - 0.00 in Snow Light Snow
7:08 PM 3.2 °F -4.2 °F -0.4 °F 85% 29.80 in 2.0 mi WNW 3.5 mph - 0.00 in Snow Light Snow
7:31 PM 3.2 °F -4.2 °F -0.4 °F 85% 29.81 in 4.0 mi WNW 3.5 mph - 0.00 in Snow Light Snow
7:58 PM 3.0 °F -4.4 °F -0.9 °F 84% 29.84 in 6.0 mi West 3.5 mph - 0.00 in Snow Light Snow
8:13 PM 1.4 °F - -0.4 °F 92% 29.81 in 3.0 mi Calm Calm - 0.00 in Snow Light Snow
8:21 PM 1.4 °F - -0.4 °F 92% 29.81 in 5.0 mi Calm Calm - 0.00 in Snow Light Snow
8:58 PM 3.0 °F -4.4 °F -0.9 °F 84% 29.85 in 4.0 mi SW 3.5 mph - 0.00 in Snow Light Snow
9:58 PM 1.0 °F -6.7 °F -2.9 °F 83% 29.86 in 8.0 mi South 3.5 mph - 0.00 in Snow Light Snow
10:58 PM -2.9 °F - -7.1 °F 82% 29.88 in 10.0 mi Calm Calm - 0.00 in   Partly Cloudy
11:58 PM -2.0 °F -10.1 °F -5.1 °F 87% 29.91 in 9.0 mi East 3.5 mph - 0.00 in Snow Light Snow